When you browse on this site, cookies collect data to enhance your experience and personalize the content and advertising you see.
Visit our Privacy Policy to learn more. By continuing to use the site, you agree to this use of cookies and data.
  • In Hungary
  • List of Countries
  • For 7 days
  • Water Temperature
  • Satellite Maps
  • Weather Map
  • News
  • Weather Widgets
  • user-avatar
    Login

    Hourly Weather Stafford

    Today, 18 January, Friday

    Time Temperature Precipitation Wind Pressure Humidity
    00:00 +1°C° 0 mm 1 mps 755 mmHg 75%
    01:00 +1°C° 0 mm 1 mps 755 mmHg 75%
    02:00 -1°C° 0 mm 2 mps 755 mmHg 76%
    03:00 -1°C° 0 mm 2 mps 754 mmHg 76%
    04:00 -1°C° 0 mm 3 mps 754 mmHg 75%
    05:00 -1°C° 0 mm 3 mps 753 mmHg 74%
    06:00 -1°C° 0 mm 3 mps 753 mmHg 73%
    07:00 -1°C° 0 mm 4 mps 753 mmHg 72%
    08:00 -1°C° 0 mm 4 mps 752 mmHg 71%
    09:00 -1°C° 0 mm 5 mps 752 mmHg 70%
    10:00 0°C° 0.2 mm 5 mps 752 mmHg 71%
    11:00 +1°C° 0.2 mm 6 mps 751 mmHg 71%
    12:00 +2°C° 0.2 mm 7 mps 751 mmHg 72%
    13:00 +2°C° 0.2 mm 7 mps 750 mmHg 73%
    14:00 +2°C° 0.2 mm 7 mps 750 mmHg 74%
    15:00 +2°C° 0.2 mm 7 mps 749 mmHg 76%
    16:00 0°C° 0.3 mm 7 mps 749 mmHg 78%
    17:00 0°C° 0.3 mm 7 mps 749 mmHg 81%
    18:00 -1°C° 0.3 mm 7 mps 749 mmHg 84%
    19:00 -1°C° 0.1 mm 7 mps 748 mmHg 84%
    20:00 -1°C° 0.1 mm 7 mps 748 mmHg 84%
    21:00 0°C° 0.1 mm 7 mps 748 mmHg 84%
    22:00 +1°C° 0 mm 6 mps 748 mmHg 86%
    23:00 +1°C° 0 mm 6 mps 748 mmHg 88%

    Tomorrow, 19 January, Saturday

    Time Temperature Precipitation Wind Pressure Humidity
    00:00 +1°C° 0 mm 6 mps 748 mmHg 90%
    01:00 +1°C° 0.1 mm 5 mps 747 mmHg 91%
    02:00 +2°C° 0.1 mm 5 mps 747 mmHg 93%
    03:00 +2°C° 0.1 mm 5 mps 747 mmHg 94%
    04:00 +2°C° 0.2 mm 5 mps 746 mmHg 94%
    05:00 +2°C° 0.2 mm 5 mps 746 mmHg 94%
    06:00 +2°C° 0.2 mm 5 mps 746 mmHg 94%
    07:00 +3°C° 0 mm 4 mps 746 mmHg 94%
    08:00 +3°C° 0 mm 4 mps 746 mmHg 94%
    09:00 +3°C° 0 mm 4 mps 746 mmHg 94%
    10:00 +3°C° 0 mm 4 mps 746 mmHg 94%
    11:00 +3°C° 0 mm 3 mps 746 mmHg 93%
    12:00 +4°C° 0 mm 3 mps 746 mmHg 92%
    13:00 +4°C° 0 mm 3 mps 746 mmHg 93%
    14:00 +4°C° 0 mm 3 mps 746 mmHg 94%
    15:00 +4°C° 0 mm 3 mps 746 mmHg 94%
    16:00 +3°C° 0 mm 3 mps 746 mmHg 95%
    17:00 +3°C° 0 mm 3 mps 747 mmHg 96%
    18:00 +3°C° 0 mm 3 mps 747 mmHg 97%
    19:00 +4°C° 0 mm 2 mps 748 mmHg 97%
    20:00 +4°C° 0 mm 2 mps 748 mmHg 97%
    21:00 +4°C° 0 mm 2 mps 748 mmHg 96%
    22:00 +4°C° 0 mm 2 mps 749 mmHg 96%
    23:00 +4°C° 0 mm 2 mps 749 mmHg 96%

    Day after tomorrow, 20 January, Sunday

    Time Temperature Precipitation Wind Pressure Humidity
    00:00 +5°C° 0 mm 1 mps 750 mmHg 96%
    01:00 +5°C° 0 mm 1 mps 750 mmHg 96%
    02:00 +5°C° 0 mm 1 mps 750 mmHg 96%
    03:00 +4°C° 0 mm 1 mps 751 mmHg 96%
    04:00 +4°C° 0 mm 1 mps 751 mmHg 96%
    05:00 +4°C° 0 mm 1 mps 751 mmHg 96%
    06:00 +4°C° 0 mm 1 mps 752 mmHg 95%
    07:00 +4°C° 0 mm 1 mps 753 mmHg 95%
    08:00 +3°C° 0 mm 0 mps 753 mmHg 95%
    09:00 +4°C° 0 mm 0 mps 754 mmHg 94%
    10:00 +4°C° 0 mm 0 mps 754 mmHg 92%
    11:00 +5°C° 0 mm 0 mps 755 mmHg 90%
    12:00 +6°C° 0 mm 1 mps 755 mmHg 88%
    13:00 +6°C° 0 mm 1 mps 755 mmHg 88%
    14:00 +7°C° 0 mm 1 mps 755 mmHg 87%
    15:00 +6°C° 0 mm 2 mps 756 mmHg 86%
    16:00 +5°C° 0 mm 2 mps 756 mmHg 88%
    17:00 +4°C° 0 mm 2 mps 757 mmHg 90%
    18:00 +3°C° 0 mm 2 mps 758 mmHg 93%
    19:00 +4°C° 0 mm 1 mps 758 mmHg 93%
    20:00 +3°C° 0 mm 1 mps 759 mmHg 94%
    21:00 +3°C° 0 mm 1 mps 759 mmHg 94%
    22:00 +3°C° 0 mm 1 mps 760 mmHg 95%
    23:00 +4°C° 0 mm 1 mps 760 mmHg 95%

    21 January, Monday

    Time Temperature Precipitation Wind Pressure Humidity
    00:00 +4°C° 0 mm 1 mps 760 mmHg 96%
    01:00 +4°C° 0 mm 1 mps 760 mmHg 96%
    02:00 +4°C° 0 mm 1 mps 760 mmHg 96%
    03:00 +4°C° 0 mm 1 mps 760 mmHg 95%
    04:00 +4°C° 0 mm 1 mps 760 mmHg 95%
    05:00 +4°C° 0 mm 1 mps 760 mmHg 95%
    06:00 +3°C° 0 mm 2 mps 760 mmHg 95%
    07:00 +3°C° 0 mm 2 mps 760 mmHg 95%
    08:00 +2°C° 0 mm 2 mps 760 mmHg 94%
    09:00 +2°C° 0 mm 2 mps 760 mmHg 94%
    10:00 +3°C° 0 mm 2 mps 760 mmHg 89%
    11:00 +3°C° 0 mm 3 mps 759 mmHg 84%
    12:00 +3°C° 0 mm 3 mps 759 mmHg 79%
    13:00 +3°C° 0 mm 4 mps 757 mmHg 78%
    14:00 +4°C° 0 mm 4 mps 756 mmHg 77%
    15:00 +3°C° 0 mm 5 mps 755 mmHg 77%
    16:00 +2°C° 0.1 mm 6 mps 754 mmHg 78%
    17:00 +2°C° 0.1 mm 6 mps 752 mmHg 80%
    18:00 +2°C° 0.1 mm 7 mps 751 mmHg 82%
    19:00 +2°C° 0.6 mm 8 mps 749 mmHg 84%
    20:00 +2°C° 0.6 mm 9 mps 748 mmHg 85%
    21:00 +3°C° 0.6 mm 9 mps 746 mmHg 87%
    22:00 +2°C° 1.5 mm 8 mps 746 mmHg 84%
    23:00 +2°C° 1.5 mm 7 mps 745 mmHg 82%

    22 January, Tuesday

    Time Temperature Precipitation Wind Pressure Humidity
    00:00 +1°C° 1.5 mm 6 mps 745 mmHg 80%
    01:00 -1°C° 0 mm 6 mps 745 mmHg 79%
    02:00 -1°C° 0 mm 5 mps 744 mmHg 78%
    03:00 -2°C° 0 mm 5 mps 744 mmHg 76%
    04:00 -2°C° 0 mm 5 mps 744 mmHg 78%
    05:00 -1°C° 0 mm 5 mps 743 mmHg 80%
    06:00 -1°C° 0 mm 5 mps 743 mmHg 81%
    07:00 -1°C° 0 mm 5 mps 742 mmHg 81%
    08:00 -1°C° 0 mm 5 mps 742 mmHg 80%
    09:00 0°C° 0 mm 5 mps 742 mmHg 80%
    10:00 0°C° 0 mm 5 mps 742 mmHg 77%
    11:00 +1°C° 0 mm 6 mps 742 mmHg 74%
    12:00 +2°C° 0 mm 7 mps 742 mmHg 71%
    13:00 +1°C° 0.1 mm 6 mps 741 mmHg 71%
    14:00 +1°C° 0.1 mm 6 mps 741 mmHg 71%
    15:00 +1°C° 0.1 mm 6 mps 741 mmHg 71%
    16:00 0°C° 0 mm 5 mps 741 mmHg 75%
    17:00 -1°C° 0 mm 4 mps 740 mmHg 80%
    18:00 -1°C° 0 mm 3 mps 740 mmHg 84%
    19:00 -1°C° 0 mm 3 mps 740 mmHg 85%
    20:00 -1°C° 0 mm 3 mps 740 mmHg 85%
    21:00 -1°C° 0 mm 3 mps 740 mmHg 86%
    22:00 -1°C° 0 mm 3 mps 740 mmHg 87%
    23:00 -1°C° 0 mm 3 mps 739 mmHg 87%

    23 January, Wednesday

    Time Temperature Precipitation Wind Pressure Humidity
    00:00 -1°C° 0 mm 3 mps 739 mmHg 87%
    01:00 -1°C° 0 mm 3 mps 739 mmHg 87%
    02:00 -1°C° 0 mm 3 mps 739 mmHg 88%
    03:00 -1°C° 0 mm 3 mps 738 mmHg 88%
    04:00 -1°C° 0.1 mm 2 mps 738 mmHg 90%
    05:00 -1°C° 0.1 mm 2 mps 738 mmHg 91%
    06:00 -1°C° 0.1 mm 2 mps 738 mmHg 92%
    07:00 -1°C° 0 mm 2 mps 739 mmHg 92%
    08:00 -1°C° 0 mm 2 mps 739 mmHg 92%
    09:00 -1°C° 0 mm 3 mps 740 mmHg 92%
    10:00 -1°C° 0 mm 3 mps 740 mmHg 87%
    11:00 0°C° 0 mm 3 mps 740 mmHg 81%
    12:00 +1°C° 0 mm 3 mps 741 mmHg 76%
    13:00 +2°C° 0 mm 2 mps 741 mmHg 77%
    14:00 +2°C° 0 mm 2 mps 741 mmHg 77%
    15:00 +2°C° 0 mm 2 mps 741 mmHg 77%
    16:00 +1°C° 0 mm 2 mps 741 mmHg 80%
    17:00 -1°C° 0 mm 2 mps 741 mmHg 83%
    18:00 -2°C° 0 mm 2 mps 742 mmHg 86%
    19:00 -2°C° 0 mm 2 mps 742 mmHg 86%
    20:00 -2°C° 0 mm 3 mps 743 mmHg 87%
    21:00 -2°C° 0 mm 3 mps 743 mmHg 88%
    22:00 -2°C° 0 mm 3 mps 744 mmHg 87%
    23:00 -2°C° 0 mm 3 mps 745 mmHg 87%
    Show more